Location: Buch
(49.7331°N, 12.1098°E)
Time: 23:56:36
(UTC+00:00)

NOSS 2-1 (D) - Pass Details

Date: 12 May 2021
Orbit: 431 x 1770 km, 63.3° (Epoch: 26 May)

Event Time Altitude Azimuth Distance (km) Brightness Sun altitude
Rises 23:08:50 0° 317° (NW) 2,837 7.7 -21.9°
Reaches altitude 10° 23:10:47 10° 319° (NW) 2,061 6.9 -21.9°
Maximum altitude 23:15:27 78° 46° (NE) 831 4.2 -21.9°
Enters shadow 23:19:12 25° 130° (SE) 1,815 5.6 -21.8°
